Wind_Speed
5 6 8 7 7 7 6 5 5 7 7 6 6 5 7 6 8 11 13 16 20 17 18 16 13 7 8 7 6 11 13 13 11 11 21 19 13 7 4 6 7 3 3 7 21 19 13
5 6 7 9 9 8 7 7 5 7 7 7 6 7 9 7 9 10 12 16 19 18 19 13 10 8 7 5 7 12 13 9 6 8 16 18 6 9 5 4 6 2 6 16 23 17 10
9 9 8 8 9 10 9 8 7 7 7 8 8 9 9 9 11 11 12 16 17 17 17 12 9 11 11 11 11 12 13 6 2 7 10 14 15 8 1 3 7 12 6 5 8 11 4
9 10 9 8 8 10 10 9 9 8 8 8 9 11 10 12 13 13 14 16 18 18 16 12 10 13 5 8 11 9 9 6 3 4 8 9 9 13 6 6 2 4 2 2 5 7 7
9 10 10 10 8 8 9 10 10 9 9 10 10 10 12 14 14 15 15 16 18 19 14 12 9 9 5 8 10 7 5 5 4 1 2 4 5 4 3 1 4 3 3 6 6 8 5
10 10 10 10 11 9 9 10 11 11 10 10 11 11 12 12 13 15 16 17 19 18 13 11 6 5 4 14 10 4 3 3 2 1 2 1 1 2 4 5 5 3 2 3 5 3 5
12 11 11 10 10 11 10 10 11 11 11 12 12 11 12 11 12 14 14 14 8 5 6 7 7 4 8 9 3 2 3 1 3 1 1 3 1 6 12 12 9 6 4 6 4 8 3
14 13 11 11 10 11 11 11 11 12 12 12 13 12 11 10 11 11 11 9 8 8 9 8 10 9 8 6 3 3 4 2 2 1 2 2 4 7 7 11 7 9 5 6 5 6 5
16 14 12 12 10 10 11 12 12 12 13 13 14 13 10 9 10 9 8 6 8 8 3 5 6 6 4 4 4 4 2 3 1 2 6 5 2 5 6 7 13 8 6 4 6 1 2
19 16 13 11 12 10 10 11 12 13 14 15 16 15 8 6 6 2 3 4 7 2 4 4 4 3 3 3 0 3 3 1 2 3 2 6 3 9 5 6 11 11 8 5 5 3 4
19 18 16 13 12 11 10 11 13 14 14 16 17 11 4 4 3 1 2 5 2 3 4 2 2 2 3 3 1 2 4 3 4 2 2 3 2 6 8 4 8 5 4 5 1 3 2
20 19 18 16 13 12 11 11 12 14 15 16 14 7 2 3 4 2 1 2 3 5 5 3 3 3 2 5 3 4 1 5 3 4 5 5 5 4 5 8 8 4 5 4 3 3 1
23 21 19 19 17 14 13 11 12 13 15 16 10 4 1 2 1 3 1 2 4 4 2 3 3 3 3 4 4 6 4 4 3 2 4 2 4 3 3 5 3 3 3 2 2 1 5
23 24 22 20 19 17 15 14 12 13 14 15 7 1 1 3 3 2 4 4 3 4 5 3 2 3 5 5 4 6 2 3 7 3 1 2 0 4 3 2 3 4 5 4 5 3 3
25 24 23 22 21 20 18 16 14 12 13 14 5 2 1 3 4 4 2 3 6 6 2 4 6 2 3 2 3 4 6 3 7 11 2 1 3 2 4 3 2 3 2 3 4 2 2
28 27 24 23 22 22 20 18 15 12 11 11 6 4 3 4 5 6 3 5 4 4 1 1 2 1 3 3 2 3 3 3 2 6 5 6 2 3 1 5 7 1 2 2 2 2 4
32 30 27 23 23 23 22 18 16 12 10 8 7 3 5 7 7 3 2 6 5 7 5 4 2 3 5 4 2 3 2 1 2 2 3 4 3 1 3 3 5 2 2 3 2 4 3
36 33 30 28 23 22 23 20 16 12 9 6 5 1 9 9 3 1 2 5 2 3 5 4 2 4 4 3 4 2 2 4 3 3 4 3 3 3 1 5 3 2 2 1 3 4 4
38 37 33 30 26 23 22 22 17 13 8 6 4 4 10 13 3 3 5 4 4 3 4 3 3 5 2 3 3 3 1 0 1 3 3 4 1 3 7 6 4 5 4 4 2 3 5
37 41 37 33 30 25 23 23 19 14 9 11 5 2 4 11 5 3 2 5 3 5 3 4 3 2 2 3 3 4 3 1 1 1 2 2 3 5 6 3 5 5 6 6 7 2 4
34 37 42 38 34 28 25 23 19 15 11 10 8 4 5 4 6 5 4 2 3 3 4 3 2 3 2 3 3 2 2 5 1 5 3 4 3 3 5 4 3 4 4 6 8 7 2
40 40 46 41 38 29 28 27 22 16 14 18 6 5 5 2 4 7 4 4 6 3 5 3 4 3 4 4 4 3 0 1 1 5 3 3 3 3 2 0 1 4 2 5 3 3 5
39 40 42 46 40 32 32 27 22 17 15 13 13 9 4 3 3 5 5 5 6 5 5 4 4 1 3 4 5 4 4 5 4 1 2 2 2 1 2 3 2 0 3 3 1 2 6
43 41 43 50 42 36 35 30 25 20 19 18 11 8 6 3 4 5 4 6 5 4 2 3 4 3 2 2 4 4 5 5 4 4 2 0 2 1 2 3 2 3 0 0 2 1 3
41 42 45 54 46 38 35 31 27 22 17 18 17 13 7 3 5 3 5 4 3 3 2 3 4 4 3 1 2 2 3 2 2 2 1 1 2 2 3 0 4 1 2 4 3 1 4
45 44 45 51 48 40 37 33 27 22 17 17 16 17 7 5 6 3 5 7 4 3 2 3 3 3 1 2 1 1 2 1 2 2 2 3 3 3 1 2 1 3 1 2 0 3 6
54 46 51 51 43 43 38 32 26 21 17 16 13 14 8 5 5 9 4 5 7 3 2 1 2 3 1 1 1 2 2 1 1 2 1 2 2 1 0 0 4 4 3 4 2 5 12
58 48 52 46 44 45 38 31 25 21 18 15 14 13 11 5 6 9 7 5 6 5 3 4 2 1 2 1 2 2 2 2 1 3 2 2 2 2 1 2 2 5 3 2 4 2 9
51 57 53 43 45 40 36 31 25 20 17 14 12 12 10 5 3 9 9 8 7 5 4 6 2 3 4 3 1 2 2 1 1 2 1 1 4 2 6 4 3 7 1 1 1 1 5
Wind_Direction
7 2 1 2 352 350 348 318 286 289 262 260 261 285 297 309 340 333 337 341 344 338 332 330 331 328 339 309 287 303 306 328 320 231 203 197 208 208 201 172 232 253 293 300 241 277 300
347 356 1 2 5 5 352 334 309 295 284 270 268 273 275 303 308 313 324 332 336 338 334 328 326 313 306 280 296 321 328 328 327 190 202 205 225 228 279 206 173 254 243 247 270 288 294
333 342 359 4 5 7 3 349 332 306 297 282 273 268 275 287 290 296 310 324 331 330 333 319 314 321 299 281 302 320 330 330 278 205 209 217 218 196 286 281 268 250 311 331 265 259 252
323 331 340 354 2 5 9 356 338 319 304 293 283 273 276 279 280 286 295 310 321 323 326 317 300 321 270 296 306 317 328 356 335 231 229 242 241 236 250 291 298 154 160 228 276 182 243
309 318 328 333 346 351 353 355 348 329 312 303 295 289 280 272 279 283 288 302 315 315 308 312 296 321 289 321 307 297 329 350 13 28 217 238 215 229 167 141 314 193 229 230 319 223 202
295 306 315 322 329 336 344 345 348 343 329 312 302 299 284 279 280 283 289 299 310 306 295 301 297 318 312 325 312 263 298 333 339 151 61 70 99 231 199 188 220 236 221 242 207 277 211
287 296 302 309 314 318 329 337 340 337 343 332 312 299 291 289 287 286 295 310 316 312 304 255 295 276 306 338 308 292 264 316 132 79 122 30 251 231 243 219 268 300 210 224 235 235 256
289 294 298 303 304 309 316 323 329 335 337 334 324 307 295 290 289 290 300 304 296 295 305 276 258 280 295 322 308 287 270 239 154 139 335 154 248 258 252 224 220 283 260 247 286 252 179
289 289 297 302 305 307 310 314 320 326 331 331 326 317 299 293 286 292 299 288 299 308 280 280 249 263 280 268 313 299 258 276 152 222 197 224 286 169 228 210 205 242 246 234 211 315 199
293 287 289 295 307 313 313 313 315 320 326 329 328 316 299 289 286 284 315 306 310 293 50 260 242 221 198 202 195 319 253 280 231 253 228 251 184 180 181 238 216 226 215 240 217 111 204
288 286 287 291 296 303 311 314 315 319 325 329 334 326 302 249 253 281 316 323 329 107 15 263 174 237 229 196 176 202 241 260 250 270 137 264 193 235 225 218 210 201 172 201 187 140 71
284 283 284 287 288 295 298 306 313 317 324 329 336 333 301 259 244 243 282 339 125 46 267 328 169 205 176 206 212 169 123 218 273 245 257 265 278 222 180 243 221 228 86 58 50 81 35
286 283 281 286 287 289 294 299 308 314 319 327 327 332 256 232 170 170 305 135 35 125 311 263 257 178 231 212 200 186 194 205 226 231 218 263 248 261 218 155 174 69 108 35 16 352 221
291 286 283 281 284 284 287 292 298 307 314 325 309 310 234 214 204 158 148 57 99 242 243 319 286 238 219 165 221 184 213 253 220 244 151 208 280 9 1 106 188 168 155 158 192 204 248
293 285 282 281 283 282 283 286 290 301 310 321 276 208 137 200 193 171 146 63 215 206 250 309 320 291 285 237 191 178 214 237 180 188 200 142 348 331 45 58 42 164 165 163 92 112 56
289 287 278 276 277 280 281 282 284 294 305 314 233 201 192 179 185 167 81 237 239 218 230 145 283 267 288 289 243 200 206 196 161 174 192 207 63 345 88 54 347 142 173 110 41 252 235
278 285 279 271 273 276 278 274 278 286 299 295 210 209 186 170 165 170 201 231 259 249 221 184 246 285 259 291 272 258 245 228 175 190 194 153 157 224 3 191 199 159 140 74 133 179 252
270 275 279 274 266 267 272 267 267 275 290 249 211 149 184 175 140 174 233 207 246 258 212 256 227 227 233 288 277 281 263 218 200 182 179 179 119 72 269 307 312 149 172 148 156 238 233
261 268 271 277 265 261 263 260 255 261 261 240 227 162 183 182 185 231 269 270 235 228 212 206 250 213 206 253 289 235 235 15 225 210 189 166 174 99 337 353 19 284 181 217 17 57 239
252 263 265 270 266 254 251 250 247 249 249 231 222 148 165 205 241 193 244 249 252 230 245 212 251 231 310 266 213 290 298 224 246 244 214 154 166 175 198 189 135 213 233 182 171 255 179
253 253 259 262 267 251 243 237 237 241 243 230 220 232 179 202 241 194 163 279 228 257 227 211 255 216 215 281 300 242 292 321 254 1 140 154 213 209 226 242 201 218 207 173 191 242 173
253 243 249 256 260 249 231 226 225 226 236 227 236 186 181 225 168 152 188 241 206 228 191 229 209 198 192 219 216 271 274 29 288 327 22 340 219 162 199 350 197 177 166 184 194 111 67
258 243 244 245 252 247 223 220 221 226 229 225 228 227 202 171 166 136 214 218 217 157 223 236 215 200 230 234 214 237 248 269 250 283 300 34 139 84 254 316 303 304 204 201 142 114 151
255 247 237 236 245 243 216 214 215 222 231 228 231 201 190 232 186 205 192 191 208 211 241 250 223 201 256 241 278 264 260 252 240 254 225 166 107 88 260 340 27 267 32 184 108 99 200
252 244 236 234 239 235 210 211 212 216 226 230 230 212 207 218 192 221 182 175 169 206 226 241 234 251 285 295 33 5 334 320 216 214 223 187 108 59 89 156 285 319 224 159 162 294 192
248 245 230 221 233 216 207 208 207 210 216 222 223 216 211 156 229 151 162 174 180 212 310 228 231 233 278 79 77 188 231 216 305 348 132 83 71 113 101 63 65 241 224 186 210 354 183
246 236 218 217 218 202 201 202 199 203 208 214 216 207 203 214 190 173 178 174 166 161 186 249 185 184 200 84 152 185 251 197 308 293 239 10 12 112 125 198 293 242 172 136 88 223 177
232 217 200 206 195 199 196 197 196 200 202 208 212 206 202 209 186 200 194 169 161 178 160 162 94 252 62 104 165 226 186 240 317 245 206 189 130 214 107 61 357 166 117 180 211 154 185
197 195 202 192 189 197 194 196 194 200 204 203 207 204 202 210 184 200 207 208 209 193 180 174 186 171 194 98 178 122 246 77 163 287 28 314 182 198 177 218 283 216 261 180 67 125 197
Height
1548 1546 1544 1542 1540 1538 1536 1535 1535 1534 1533 1532 1531 1531 1532 1531 1529 1530 1529 1527 1524 1521 1517 1514 1511 1510 1510 1509 1506 1504 1502 1500 1497 1495 1498 1502 1505 1506 1506 1506 1507 1507 1505 1504 1504 1503 1504
1548 1545 1543 1541 1539 1537 1536 1534 1533 1532 1531 1530 1530 1529 1530 1529 1529 1528 1528 1526 1523 1520 1517 1513 1511 1510 1509 1508 1504 1503 1501 1499 1497 1496 1498 1501 1504 1504 1506 1504 1506 1503 1503 1503 1502 1502 1503
1548 1545 1543 1541 1539 1537 1536 1534 1532 1531 1530 1529 1528 1528 1527 1527 1527 1526 1526 1524 1522 1519 1516 1513 1511 1509 1508 1507 1504 1502 1500 1498 1498 1498 1499 1501 1503 1504 1504 1504 1502 1501 1505 1502 1500 1500 1501
1547 1546 1543 1541 1539 1537 1535 1533 1532 1530 1528 1527 1526 1525 1525 1524 1524 1523 1523 1522 1520 1517 1514 1512 1510 1508 1505 1504 1503 1502 1500 1498 1498 1497 1498 1499 1501 1503 1504 1503 1500 1502 1503 1506 1497 1496 1497
1545 1544 1543 1542 1539 1537 1535 1533 1531 1529 1527 1525 1524 1522 1522 1522 1521 1520 1520 1520 1518 1515 1513 1511 1509 1507 1505 1503 1502 1501 1500 1499 1498 1498 1498 1499 1500 1501 1503 1505 1505 1501 1507 1506 1502 1494 1494
1543 1543 1542 1541 1539 1537 1534 1532 1530 1528 1526 1524 1522 1521 1520 1519 1518 1518 1518 1517 1515 1513 1511 1509 1508 1509 1505 1503 1499 1499 1500 1499 1499 1499 1499 1499 1500 1500 1500 1502 1504 1504 1506 1502 1502 1493 1493
1541 1541 1540 1539 1538 1537 1534 1531 1529 1527 1525 1523 1521 1519 1518 1517 1516 1516 1516 1515 1516 1513 1509 1509 1508 1506 1504 1503 1500 1500 1499 1499 1499 1499 1500 1501 1501 1498 1497 1499 1502 1501 1499 1499 1497 1492 1493
1539 1538 1537 1536 1535 1535 1533 1530 1528 1526 1524 1521 1519 1517 1516 1515 1515 1514 1514 1514 1515 1515 1509 1505 1505 1505 1504 1503 1501 1500 1500 1501 1499 1499 1500 1502 1498 1497 1497 1496 1500 1503 1498 1498 1493 1489 1492
1538 1537 1535 1534 1533 1532 1531 1529 1527 1525 1522 1520 1518 1515 1513 1513 1513 1513 1512 1513 1513 1513 1512 1504 1503 1502 1503 1503 1502 1500 1501 1500 1499 1500 1500 1500 1495 1496 1496 1496 1499 1503 1500 1497 1495 1488 1488
1537 1536 1533 1532 1531 1530 1528 1527 1526 1523 1521 1518 1515 1513 1511 1511 1514 1511 1512 1512 1512 1512 1520 1505 1502 1500 1500 1500 1501 1500 1500 1502 1499 1498 1498 1497 1493 1495 1498 1497 1497 1500 1493 1491 1489 1496 1504
1533 1533 1533 1531 1529 1528 1526 1525 1524 1522 1519 1516 1512 1510 1510 1509 1511 1511 1513 1512 1511 1513 1543 1503 1501 1500 1499 1501 1499 1499 1499 1500 1499 1497 1499 1494 1493 1493 1491 1495 1495 1486 1486 1489 1487 1494 1500
1529 1529 1530 1529 1528 1526 1524 1523 1521 1520 1517 1514 1511 1510 1509 1510 1510 1511 1511 1512 1513 1527 1536 1500 1498 1498 1498 1497 1498 1498 1499 1500 1498 1497 1497 1495 1491 1489 1486 1490 1485 1483 1486 1490 1494 1500 1515
1526 1525 1526 1526 1526 1524 1522 1521 1519 1517 1516 1513 1510 1509 1508 1510 1510 1510 1511 1513 1524 1536 1505 1499 1496 1497 1497 1495 1495 1496 1496 1496 1495 1494 1490 1493 1488 1483 1481 1482 1484 1481 1492 1515 1513 1517 1505
1521 1522 1522 1523 1523 1522 1520 1519 1516 1515 1514 1512 1509 1508 1508 1509 1510 1510 1511 1514 1533 1509 1504 1497 1495 1493 1494 1489 1490 1493 1494 1493 1493 1494 1492 1492 1492 1485 1482 1482 1483 1486 1489 1506 1496 1509 1503
1517 1517 1518 1519 1520 1519 1518 1516 1515 1512 1512 1510 1508 1508 1507 1508 1509 1510 1513 1529 1514 1506 1498 1498 1494 1491 1489 1486 1488 1490 1492 1487 1486 1489 1491 1491 1490 1483 1482 1482 1485 1485 1493 1490 1497 1512 1518
1512 1512 1512 1514 1515 1516 1515 1514 1513 1511 1510 1509 1507 1507 1506 1506 1508 1511 1514 1512 1504 1498 1497 1497 1498 1493 1491 1486 1485 1487 1483 1481 1481 1482 1483 1486 1491 1486 1486 1484 1485 1485 1489 1490 1500 1497 1494
1506 1507 1507 1508 1510 1511 1512 1511 1511 1509 1508 1507 1506 1505 1505 1505 1507 1511 1518 1509 1499 1494 1496 1497 1496 1496 1493 1489 1484 1482 1480 1480 1479 1480 1479 1481 1484 1490 1488 1487 1487 1488 1489 1490 1493 1500 1486
1499 1501 1502 1502 1504 1506 1507 1508 1508 1508 1507 1506 1504 1504 1504 1505 1509 1509 1510 1501 1496 1493 1494 1494 1493 1493 1491 1487 1484 1480 1480 1478 1477 1477 1478 1480 1485 1497 1492 1489 1486 1485 1483 1482 1494 1486 1495
1491 1493 1496 1497 1498 1501 1502 1504 1504 1506 1506 1506 1501 1499 1502 1504 1507 1507 1500 1497 1494 1492 1492 1492 1491 1490 1487 1486 1486 1480 1478 1476 1476 1476 1476 1479 1486 1499 1493 1488 1485 1486 1481 1482 1487 1492 1487
1483 1485 1488 1490 1492 1495 1496 1498 1500 1501 1504 1504 1499 1499 1500 1502 1498 1498 1497 1494 1492 1489 1489 1489 1489 1488 1487 1484 1483 1481 1478 1475 1475 1474 1474 1476 1481 1477 1480 1471 1480 1486 1477 1480 1486 1494 1477
1474 1477 1479 1482 1484 1488 1490 1492 1496 1497 1500 1501 1494 1489 1488 1496 1494 1493 1494 1492 1490 1489 1488 1487 1487 1487 1488 1487 1482 1480 1479 1477 1474 1474 1474 1475 1477 1477 1475 1473 1471 1468 1469 1473 1480 1472 1465
1462 1467 1469 1473 1476 1481 1483 1486 1489 1492 1495 1495 1489 1486 1486 1487 1487 1490 1491 1489 1488 1485 1486 1485 1486 1484 1486 1486 1481 1482 1481 1480 1478 1475 1474 1474 1474 1474 1467 1470 1471 1468 1469 1470 1468 1472 1472
1450 1454 1459 1463 1467 1472 1476 1479 1484 1486 1489 1487 1484 1481 1481 1483 1486 1488 1486 1483 1483 1483 1482 1481 1482 1483 1482 1480 1478 1479 1479 1478 1477 1477 1477 1476 1476 1479 1466 1472 1467 1465 1465 1465 1464 1466 1470
1438 1441 1445 1451 1457 1463 1467 1471 1476 1479 1481 1482 1480 1479 1480 1478 1482 1480 1478 1480 1481 1481 1482 1481 1481 1481 1479 1477 1478 1477 1477 1476 1476 1475 1476 1475 1477 1483 1483 1469 1474 1464 1464 1463 1462 1464 1466
1424 1427 1431 1438 1446 1453 1459 1463 1468 1472 1475 1475 1476 1476 1474 1474 1474 1475 1475 1477 1479 1479 1480 1479 1479 1479 1478 1478 1479 1478 1479 1475 1473 1474 1475 1476 1478 1482 1483 1479 1469 1462 1464 1465 1462 1464 1464
1407 1411 1418 1424 1436 1444 1451 1455 1461 1465 1469 1470 1471 1471 1471 1470 1468 1469 1472 1473 1477 1480 1479 1476 1477 1477 1478 1478 1480 1473 1475 1473 1472 1472 1474 1475 1477 1477 1484 1466 1460 1460 1461 1461 1462 1472 1463
1385 1395 1404 1412 1423 1434 1442 1448 1453 1459 1463 1465 1466 1467 1467 1466 1464 1467 1468 1470 1471 1475 1476 1476 1476 1477 1478 1481 1480 1481 1476 1476 1474 1470 1469 1478 1481 1477 1481 1475 1468 1460 1460 1461 1463 1472 1460
1358 1377 1389 1401 1413 1425 1434 1441 1446 1452 1457 1460 1461 1462 1463 1463 1462 1464 1465 1466 1468 1470 1473 1474 1477 1476 1478 1479 1481 1480 1481 1480 1478 1472 1469 1472 1477 1479 1482 1473 1467 1459 1462 1460 1461 1458 1459
1341 1365 1383 1394 1407 1418 1428 1435 1440 1446 1451 1455 1457 1458 1459 1461 1462 1462 1463 1464 1466 1467 1469 1471 1472 1472 1473 1478 1482 1482 1478 1484 1480 1471 1472 1471 1471 1472 1473 1467 1459 1458 1458 1458 1459 1459 1460